This is the latest recevied weather packets stored in our database for station/object IZ2WYA-13. If no packets are shown the sender has not sent any weather packets the latest 10 day(s).
| Time | Temp. | Humidity | Pressure | Rain* | Wind** | Luminosity | Snow |
|---|---|---|---|---|---|---|---|
| 1787993165 | 23.33° C | 63% | 1017.3 hPa | - | - | - | - |
| 1787991363 | 23.33° C | 62% | 1017.4 hPa | - | - | - | - |
| 1787989562 | 22.78° C | 68% | 1017.6 hPa | - | - | - | - |
| 1787987761 | 22.78° C | 65% | 1017.7 hPa | - | - | - | - |
| 1787985960 | 22.22° C | 68% | 1017.8 hPa | - | - | - | - |
| 1787984158 | 22.22° C | 70% | 1017.7 hPa | - | - | - | - |
| 1787982357 | 22.22° C | 70% | 1017.6 hPa | - | - | - | - |
| 1787980556 | 22.22° C | 70% | 1017.3 hPa | - | - | - | - |
| 1787978755 | 22.22° C | 71% | 1017.1 hPa | - | - | - | - |
| 1787976953 | 22.22° C | 70% | 1016.8 hPa | - | - | - | - |
| 1787975152 | 22.78° C | 71% | 1016.9 hPa | - | - | - | - |
| 1787973351 | 22.78° C | 70% | 1016.7 hPa | - | - | - | - |
| 1787971550 | 22.78° C | 71% | 1016.7 hPa | - | - | - | - |
| 1787969748 | 22.78° C | 70% | 1016.6 hPa | - | - | - | - |
| 1787967947 | 22.78° C | 72% | 1016.5 hPa | - | - | - | - |
| 1787966146 | 22.78° C | 73% | 1016.6 hPa | - | - | - | - |
| 1787964344 | 23.33° C | 72% | 1016.8 hPa | - | - | - | - |
| 1787962543 | 23.33° C | 71% | 1016.4 hPa | - | - | - | - |
| 1787960742 | 23.33° C | 71% | 1016.7 hPa | - | - | - | - |
| 1787958941 | 23.33° C | 71% | 1016.5 hPa | - | - | - | - |
| 1787957139 | 23.89° C | 70% | 1016.2 hPa | - | - | - | - |
| 1787955338 | 23.89° C | 70% | 1016.3 hPa | - | - | - | - |
| 1787953537 | 24.44° C | 67% | 1016.4 hPa | - | - | - | - |
| 1787951735 | 24.44° C | 67% | 1016 hPa | - | - | - | - |
| 1787949939 | 24.44° C | 66% | 1015.4 hPa | - | - | - | - |
* Rain since midnight (hover to see other rain measurements)
** Current wind speed in m/s (hover to see current wind gust speed)